Location: Gleizolles
(44.4833°N, 6.7667°E)
Time: 16:01:12
(UTC+00:00)

Altair - Pass Details

Date: 27 June 2024
Orbit: 1502 x 1681 km, 47.2° (Epoch: 13 July)

Event Time Altitude Azimuth Distance (km) Brightness Sun altitude
Rises 01:17:18 0° 252° (WSW) 4,631 - -18.4°
Exits shadow 01:19:38 - 252° (WSW) 3,868 9.2 -18.2°
Reaches altitude 10° 01:20:17 10° 253° (WSW) 3,656 9.1 -18.1°
Maximum altitude 01:29:32 87° 343° (NNW) 1,535 7.5 -17.4°
Drops below altitude 10° 01:39:04 10° 74° (ENE) 3,765 10.2 -16.6°
Sets 01:42:12 0° 75° (ENE) 4,774 10.8 -16.3°
